Zurück zum Katalog

STARLINK-36589

AktivKommunikationVLEO
NORAD 67843·PAYLOAD·🇺🇸 United States

Gestartet Feb 16, 2026 von Vandenberg Space Force Base

Loading…

Nächste Überflüge (nächste 24 Stunden)

TLE

AktuellSource: CelesTrak SupGP

Epoche: Sep 14, 2026, 22:57 UTC

1 67843C 26033Y   26257.95673611  .00037252  00000+0  13494-2 0  2570
2 67843  43.0005 277.9558 0001338 262.9628  52.2782 15.27556950    17

Verfolge STARLINK-36589 in Echtzeit mit AllMySat

Download on the App Store